TimeCDT,TemperatureF,Dew PointF,Humidity,Sea Level PressureIn,VisibilityMPH,Wind Direction,Wind SpeedMPH,Gust SpeedMPH,PrecipitationIn,Events,Conditions,WindDirDegrees,DateUTC
12:15 AM,72.7,65.3,78,30.02,10.0,Calm,Calm,-,N/A,,Scattered Clouds,0,2013-08-19 05:15:00
12:35 AM,72.5,64.9,77,30.02,10.0,Calm,Calm,-,N/A,,Scattered Clouds,0,2013-08-19 05:35:00
12:55 AM,72.1,65.3,79,30.03,10.0,Calm,Calm,-,N/A,,Scattered Clouds,0,2013-08-19 05:55:00
1:15 AM,71.6,65.3,80,30.03,10.0,Calm,Calm,-,N/A,,Scattered Clouds,0,2013-08-19 06:15:00
1:35 AM,70.9,65.3,82,30.02,10.0,Calm,Calm,-,N/A,,Scattered Clouds,0,2013-08-19 06:35:00
1:55 AM,70.7,65.3,83,30.03,10.0,Calm,Calm,-,N/A,,Scattered Clouds,0,2013-08-19 06:55:00
2:15 AM,70.9,65.3,82,30.03,10.0,Calm,Calm,-,N/A,,Scattered Clouds,0,2013-08-19 07:15:00
2:35 AM,70.7,64.9,82,30.03,10.0,Calm,Calm,-,N/A,,Scattered Clouds,0,2013-08-19 07:35:00
2:55 AM,71.4,64.9,80,30.03,10.0,Calm,Calm,-,N/A,,Scattered Clouds,0,2013-08-19 07:55:00
3:15 AM,71.6,65.1,80,30.03,10.0,Calm,Calm,-,N/A,,Scattered Clouds,0,2013-08-19 08:15:00
3:35 AM,71.1,64.9,81,30.03,10.0,Calm,Calm,-,N/A,,Scattered Clouds,0,2013-08-19 08:35:00
3:55 AM,70.7,65.3,83,30.04,10.0,Calm,Calm,-,N/A,,Scattered Clouds,0,2013-08-19 08:55:00
4:15 AM,70.7,65.3,83,30.04,10.0,Calm,Calm,-,N/A,,Scattered Clouds,0,2013-08-19 09:15:00
4:35 AM,69.1,64.6,86,30.04,10.0,Calm,Calm,-,N/A,,Scattered Clouds,0,2013-08-19 09:35:00
4:55 AM,68.9,64.4,86,30.04,10.0,Calm,Calm,-,N/A,,Scattered Clouds,0,2013-08-19 09:55:00
5:15 AM,68.4,64.6,88,30.04,10.0,Calm,Calm,-,N/A,,Scattered Clouds,0,2013-08-19 10:15:00
5:35 AM,68.0,64.6,89,30.05,10.0,Calm,Calm,-,N/A,,Scattered Clouds,0,2013-08-19 10:35:00
5:55 AM,67.8,64.0,88,30.05,10.0,Calm,Calm,-,N/A,,Scattered Clouds,0,2013-08-19 10:55:00
6:15 AM,67.3,63.9,89,30.05,10.0,Calm,Calm,-,N/A,,Scattered Clouds,0,2013-08-19 11:15:00
6:35 AM,67.1,64.4,91,30.06,7.0,Calm,Calm,-,N/A,,Scattered Clouds,0,2013-08-19 11:35:00
6:55 AM,67.5,64.4,90,30.06,10.0,Calm,Calm,-,N/A,,Scattered Clouds,0,2013-08-19 11:55:00
7:15 AM,68.9,65.3,88,30.06,10.0,ENE,3.5,-,N/A,,Scattered Clouds,70,2013-08-19 12:15:00
7:35 AM,70.0,66.2,88,30.07,10.0,Calm,Calm,-,N/A,,Scattered Clouds,0,2013-08-19 12:35:00
7:55 AM,71.6,66.9,85,30.07,10.0,Calm,Calm,-,N/A,,Scattered Clouds,0,2013-08-19 12:55:00
8:15 AM,72.7,67.3,83,30.07,10.0,Calm,Calm,-,N/A,,Scattered Clouds,0,2013-08-19 13:15:00
8:35 AM,75.2,68.0,78,30.07,10.0,Calm,Calm,-,N/A,,Scattered Clouds,0,2013-08-19 13:35:00
8:55 AM,76.8,68.2,75,30.08,10.0,Calm,Calm,-,N/A,,Scattered Clouds,0,2013-08-19 13:55:00
9:15 AM,78.8,68.0,69,30.08,10.0,ESE,3.5,-,N/A,,Scattered Clouds,110,2013-08-19 14:15:00
9:35 AM,79.9,67.8,66,30.08,10.0,Calm,Calm,-,N/A,,Scattered Clouds,0,2013-08-19 14:35:00
9:55 AM,81.0,67.3,63,30.09,10.0,NE,4.6,-,N/A,,Scattered Clouds,50,2013-08-19 14:55:00
10:15 AM,82.6,67.1,59,30.08,10.0,ENE,4.6,-,N/A,,Scattered Clouds,70,2013-08-19 15:15:00
10:35 AM,84.2,65.8,54,30.08,10.0,East,5.8,-,N/A,,Scattered Clouds,100,2013-08-19 15:35:00
10:55 AM,85.1,64.8,50,30.09,10.0,NE,5.8,-,N/A,,Scattered Clouds,50,2013-08-19 15:55:00
11:15 AM,86.2,64.2,48,30.08,10.0,NNE,6.9,-,N/A,,Scattered Clouds,20,2013-08-19 16:15:00
11:35 AM,87.1,63.0,44,30.08,10.0,NNE,4.6,-,N/A,,Scattered Clouds,20,2013-08-19 16:35:00
11:55 AM,87.4,62.6,43,30.07,10.0,NE,8.1,-,N/A,,Scattered Clouds,40,2013-08-19 16:55:00
12:15 PM,89.6,60.8,38,30.07,10.0,ENE,6.9,-,N/A,,Scattered Clouds,70,2013-08-19 17:15:00
12:35 PM,89.4,60.3,37,30.06,10.0,ENE,4.6,-,N/A,,Scattered Clouds,60,2013-08-19 17:35:00
12:55 PM,90.1,60.8,37,30.05,10.0,North,3.5,-,N/A,,Scattered Clouds,350,2013-08-19 17:55:00
1:15 PM,90.7,59.4,35,30.04,10.0,Calm,Calm,-,N/A,,Scattered Clouds,0,2013-08-19 18:15:00
1:35 PM,88.9,56.7,33,30.04,10.0,ENE,6.9,-,N/A,,Mostly Cloudy,70,2013-08-19 18:35:00
1:55 PM,92.5,53.1,26,30.03,10.0,East,8.1,-,N/A,,Scattered Clouds,90,2013-08-19 18:55:00
2:15 PM,92.1,50.7,24,30.02,10.0,Calm,Calm,-,N/A,,Clear,0,2013-08-19 19:15:00
2:35 PM,91.8,53.6,27,30.01,10.0,NNE,6.9,-,N/A,,Scattered Clouds,30,2013-08-19 19:35:00
2:55 PM,93.4,53.4,26,30.00,10.0,NNE,6.9,-,N/A,,Scattered Clouds,30,2013-08-19 19:55:00
3:15 PM,91.8,53.6,27,30.00,7.0,East,6.9,-,N/A,,Scattered Clouds,80,2013-08-19 20:15:00
3:35 PM,93.2,54.0,26,29.99,7.0,NE,4.6,-,N/A,,Scattered Clouds,40,2013-08-19 20:35:00
3:55 PM,92.5,52.7,26,29.99,5.0,North,6.9,-,N/A,,Haze,360,2013-08-19 20:55:00
4:15 PM,93.2,54.1,27,29.99,7.0,North,6.9,-,N/A,,Scattered Clouds,360,2013-08-19 21:15:00
4:35 PM,92.3,53.6,27,29.98,7.0,Calm,Calm,-,N/A,,Scattered Clouds,0,2013-08-19 21:35:00
4:55 PM,91.9,54.0,27,29.98,10.0,North,5.8,-,N/A,,Scattered Clouds,350,2013-08-19 21:55:00
5:15 PM,91.0,56.7,31,29.97,7.0,ENE,5.8,-,N/A,,Scattered Clouds,60,2013-08-19 22:15:00
5:35 PM,90.7,57.9,33,29.97,7.0,East,3.5,-,N/A,,Scattered Clouds,90,2013-08-19 22:35:00
5:55 PM,90.0,59.5,36,29.97,7.0,East,5.8,-,N/A,,Scattered Clouds,80,2013-08-19 22:55:00
6:15 PM,89.8,59.9,36,29.97,10.0,NE,6.9,-,N/A,,Scattered Clouds,40,2013-08-19 23:15:00
6:35 PM,88.7,59.2,37,29.98,10.0,ENE,8.1,-,N/A,,Scattered Clouds,60,2013-08-19 23:35:00
6:55 PM,88.5,59.0,37,29.98,7.0,ENE,4.6,-,N/A,,Scattered Clouds,60,2013-08-19 23:55:00
7:15 PM,87.8,59.7,39,29.98,7.0,Calm,Calm,-,N/A,,Scattered Clouds,0,2013-08-20 00:15:00
7:35 PM,86.0,61.5,44,29.99,10.0,ESE,5.8,-,N/A,,Scattered Clouds,110,2013-08-20 00:35:00
7:55 PM,84.6,59.5,43,29.99,10.0,ESE,3.5,-,N/A,,Scattered Clouds,110,2013-08-20 00:55:00
8:15 PM,83.5,59.9,45,29.99,10.0,Calm,Calm,-,N/A,,Scattered Clouds,0,2013-08-20 01:15:00
8:35 PM,82.4,61.2,48,29.99,10.0,East,3.5,-,N/A,,Scattered Clouds,90,2013-08-20 01:35:00
8:55 PM,80.8,62.6,54,29.99,10.0,Calm,Calm,-,N/A,,Scattered Clouds,0,2013-08-20 01:55:00
9:15 PM,80.2,63.5,57,30.00,10.0,Calm,Calm,-,N/A,,Scattered Clouds,0,2013-08-20 02:15:00
9:35 PM,79.7,63.7,58,30.01,10.0,Calm,Calm,-,N/A,,Scattered Clouds,0,2013-08-20 02:35:00
9:55 PM,78.8,63.9,60,30.01,10.0,Calm,Calm,-,N/A,,Scattered Clouds,0,2013-08-20 02:55:00
10:15 PM,77.2,64.2,64,30.02,10.0,Calm,Calm,-,N/A,,Scattered Clouds,0,2013-08-20 03:15:00
10:35 PM,77.0,64.6,65,30.02,10.0,Calm,Calm,-,N/A,,Scattered Clouds,0,2013-08-20 03:35:00
10:55 PM,77.0,65.1,67,30.02,10.0,Calm,Calm,-,N/A,,Scattered Clouds,0,2013-08-20 03:55:00
11:15 PM,76.6,65.5,68,30.02,10.0,Calm,Calm,-,N/A,,Scattered Clouds,0,2013-08-20 04:15:00
11:35 PM,75.0,65.7,73,30.02,10.0,Calm,Calm,-,N/A,,Scattered Clouds,0,2013-08-20 04:35:00
11:55 PM,75.4,66.0,73,30.02,10.0,ESE,3.5,-,N/A,,Scattered Clouds,110,2013-08-20 04:55:00